User: anonymous   Login
Location: Unspecified
(0.0000°N, 0.0000°E)
Time: 14:52:53
(UTC+00:00)
Language:

ADEOS II - Orbit

View from above orbital plane
View from above orbital plane
View from above satellite
View from above satellite

Ground track
Ground track

The orbit data is extracted from the following two-line orbital elements,

1 27597U 02056A   17352.00020405  .00000052  00000-0  38396-4 0  9992
2 27597  98.3958 313.9895 0001806 114.8886 245.2483 14.27325156781643
Epoch (UTC): 18 December 2017 00:00:17
Eccentricity: 0.0001806
inclination: 98.3958°
perigee height: 799 km
apogee height: 802 km
right ascension of ascending node: 313.9895°
argument of perigee: 114.8886°
revolutions per day: 14.27325156
mean anomaly at epoch: 245.2483°
orbit number at epoch: 78164

The dashed part of the orbit path shows where the satellite is in the earth's shadow,  

DLR